Location: Kings Park
(40.8862°N, 73.2573°W)
Time: 05:19:07
(UTC+00:00)

NOSS 3-3 (C) - Pass Details

Date: 29 October 2020
Orbit: 825 x 1387 km, 63.4° (Epoch: 22 November)

Event Time Altitude Azimuth Distance (km) Brightness Sun altitude
Rises 23:24:27 0° 220° (SW) 3,387 7.5 -18.0°
Reaches altitude 10° 23:26:49 10° 223° (SW) 2,489 6.8 -18.4°
Maximum altitude 23:32:31 70° 307° (NW) 977 4.1 -19.5°
Enters shadow 23:38:38 12° 31° (NNE) 2,668 6.0 -20.7°
